[[{"header":{"parameterUnit":"m.s-1","parameterCategory":1,"la1":30.2992,"la2":30.254,"lo1":-89.0895,"lo2":-89.0443,"dy":0.0025,"dx":0.0025,"nx":19,"ny":19,"refTime":"2026-05-02T09:00:00:Z","depth":0,"parameterNumber":2,"parameterNumberName":"U-component_of_WINDS"},"data":[0,0,0,-1.2544,-1.2549,-1.2751,-1.2751,-1.3035,-1.3038,0,0,0,0,0,0,0,0,0,0,0,-1.2498,-1.25,-1.2544,-1.2549,-1.275,-1.2751,-1.3035,-1.3038,0,0,0,0,0,0,0,0,0,0,0,-1.2497,-1.25,-1.2503,-1.255,-1.275,-1.2751,-1.3034,-1.2873,0,0,0,0,0,0,0,0,0,0,-1.2673,-1.2643,-1.2499,-1.2503,-1.2551,-1.275,-1.2751,-1.2865,-1.2883,-1.2954,0,-1.3019,0,-1.3033,-1.3059,-1.306,0,0,0,-1.254,-1.2628,-1.267,-1.2503,-1.2553,-1.275,-1.2657,-1.2875,-1.2896,-1.2979,-1.3023,-1.3033,-1.3038,-1.306,-1.3062,-1.3499,-1.3501,0,0,-1.2529,-1.2542,-1.2656,-1.2684,-1.2652,-1.2651,-1.2663,-1.2887,-1.2937,-1.3024,-1.3039,-1.3042,-1.3063,-1.3065,-1.3497,-1.35,0,0,0,-1.2503,-1.2535,-1.2571,-1.2673,-1.2707,-1.2657,-1.2671,-1.2927,-1.2938,-1.3042,-1.3046,-1.3064,-1.3068,-1.3494,-1.3498,-1.3636,0,0,0,-1.2496,-1.252,-1.2566,-1.2577,-1.2703,-1.2819,-1.2707,-1.2922,-1.2947,-1.3044,-1.3064,-1.3071,-1.3491,-1.3496,-1.3626,-1.3702,0,0,0,-1.248,-1.2518,-1.2551,-1.2577,-1.2664,-1.2815,-1.2838,-1.2927,-1.295,-1.306,-1.3072,-1.3489,-1.3495,-1.3618,-1.3687,-1.3824,0,0,0,-1.2468,-1.2671,-1.2554,-1.2782,-1.2662,-1.2897,-1.2836,-1.3011,-1.3122,-1.3066,-1.3491,-1.3497,-1.3615,-1.3678,-1.3814,-1.3944,-1.3998,0,0,-1.2733,-1.2704,-1.2837,-1.2737,-1.2997,-1.2865,-1.3146,-1.3235,-1.3233,-1.3411,-1.3421,-1.363,-1.3686,-1.3822,-1.4287,-1.433,0,0,0,-1.2925,-1.3022,-1.3087,-1.3192,-1.3263,-1.3331,-1.3374,-1.3407,-1.3557,-1.3326,-1.3712,-1.3746,-1.3825,-1.3887,-1.3923,-1.3992,-1.3525,-1.3524,-1.3524,-1.3324,-1.3308,-1.3528,-1.3538,-1.364,-1.3682,-1.3765,-1.3817,-1.3772,-1.3863,-1.3919,-1.4202,-1.4275,-1.4302,-1.4374,-1.3981,-1.3981,-1.3982,-1.3982,-1.3714,-1.385,-1.3783,-1.3974,-1.3957,-1.4117,-1.4165,-1.4128,-1.4277,-1.4159,-1.4228,-1.4106,-1.435,-1.4412,-1.3992,-1.3991,-1.3989,-1.3988,-1.3988,-1.3978,-1.404,-1.4074,-1.4224,-1.4342,-1.4343,-1.4489,-1.4467,-1.4448,-1.4516,-1.4574,-1.4572,-1.4571,-1.4544,-1.4545,-1.4546,-1.4546,-1.4547,-1.4548,-1.424,-1.4274,-1.4399,-1.449,-1.4554,-1.4637,-1.4679,-1.4743,-1.4809,-1.4782,-1.4782,-1.4732,-1.4374,-1.4287,-1.4563,-1.4561,-1.4559,-1.4557,-1.4556,-1.4652,-1.4555,-1.4748,-1.4813,-1.4918,-1.5038,-1.5006,-1.5138,-1.5187,-1.526,-1.5193,-1.493,-1.49,-1.4871,-1.48,-1.5192,-1.5192,-1.5192,-1.5192,-1.4879,-1.4859,-1.5053,-1.5158,-1.5258,-1.5248,-1.5471,-1.5505,-1.5526,-1.5556,-1.5495,-1.5396,-1.5367,-1.5355,-1.5315,-1.5249,-1.5747,-1.5747,-1.5748,-1.5134,-1.5122,-1.5316,-1.5332,-1.5412,-1.5483,-1.5692,-1.5817,-1.582,-1.577,-1.5581,-1.5557,-1.5398,-1.5346,-1.5298,-1.5237,-1.5115,0,0]},{"header":{"parameterUnit":"m.s-1","parameterCategory":1,"la1":30.2992,"la2":30.254,"lo1":-89.0895,"lo2":-89.0443,"dy":0.0025,"dx":0.0025,"nx":19,"ny":19,"refTime":"2026-05-02T09:00:00:Z","depth":0,"parameterNumber":3,"parameterNumberName":"V-component_of_WINDS"},"data":[0,0,0,-3.2707,-3.2711,-3.2856,-3.2856,-3.3048,-3.3049,0,0,0,0,0,0,0,0,0,0,0,-3.267,-3.2671,-3.2707,-3.2711,-3.2856,-3.2856,-3.3047,-3.3049,0,0,0,0,0,0,0,0,0,0,0,-3.2669,-3.2671,-3.2672,-3.2711,-3.2856,-3.2857,-3.3047,-3.2935,0,0,0,0,0,0,0,0,0,0,-3.2793,-3.2764,-3.267,-3.2673,-3.2712,-3.2856,-3.2857,-3.293,-3.2942,-3.2985,0,-3.3026,0,-3.3041,-3.3063,-3.3063,0,0,0,-3.2707,-3.2753,-3.2788,-3.2673,-3.2714,-3.2855,-3.2789,-3.2936,-3.2951,-3.3001,-3.3028,-3.3035,-3.3044,-3.3064,-3.3065,-3.3328,-3.333,0,0,-3.2699,-3.2698,-3.2778,-3.2797,-3.2777,-3.2785,-3.2794,-3.2945,-3.2974,-3.3029,-3.304,-3.3047,-3.3065,-3.3067,-3.3327,-3.3329,0,0,0,-3.2679,-3.2693,-3.2723,-3.2789,-3.2815,-3.2789,-3.28,-3.2967,-3.2977,-3.3042,-3.3049,-3.3066,-3.3069,-3.3325,-3.3327,-3.3398,0,0,0,-3.2673,-3.2681,-3.272,-3.2721,-3.2813,-3.2893,-3.2818,-3.2967,-3.2984,-3.3048,-3.3067,-3.3071,-3.3324,-3.3326,-3.3392,-3.3431,0,0,0,-3.2658,-3.2679,-3.2702,-3.2721,-3.2783,-3.2891,-3.291,-3.297,-3.2989,-3.3064,-3.3071,-3.3323,-3.3326,-3.3388,-3.3423,-3.35,0,0,0,-3.2642,-3.2762,-3.2703,-3.2841,-3.2782,-3.2934,-3.2909,-3.3021,-3.3094,-3.3068,-3.3324,-3.3327,-3.3386,-3.3418,-3.3495,-3.3564,-3.3593,0,0,-3.2794,-3.2781,-3.2861,-3.2813,-3.2975,-3.2911,-3.3083,-3.315,-3.3157,-3.327,-3.3277,-3.3394,-3.3423,-3.3499,-3.3756,-3.3779,0,0,0,-3.2909,-3.2968,-3.301,-3.308,-3.3134,-3.3183,-3.3223,-3.3248,-3.3344,-3.3215,-3.3442,-3.3459,-3.3504,-3.3537,-3.3557,-3.3595,-3.3343,-3.3342,-3.3342,-3.3124,-3.3127,-3.326,-3.328,-3.3348,-3.3387,-3.3442,-3.3481,-3.3464,-3.3517,-3.3551,-3.3707,-3.3746,-3.3761,-3.38,-3.3588,-3.3588,-3.3589,-3.3589,-3.3347,-3.3429,-3.3403,-3.3523,-3.3525,-3.3625,-3.3667,-3.3651,-3.3744,-3.3682,-3.3721,-3.3654,-3.3786,-3.3821,-3.3594,-3.3593,-3.3593,-3.3592,-3.3592,-3.3488,-3.3528,-3.3556,-3.3655,-3.3731,-3.3746,-3.3836,-3.3834,-3.3832,-3.3871,-3.3906,-3.3905,-3.3904,-3.3888,-3.3889,-3.3889,-3.389,-3.389,-3.389,-3.3624,-3.3653,-3.373,-3.3796,-3.3839,-3.3896,-3.3936,-3.3978,-3.4024,-3.4015,-3.4015,-3.3992,-3.3799,-3.375,-3.3899,-3.3897,-3.3896,-3.3895,-3.3895,-3.3849,-3.3798,-3.3917,-3.396,-3.4037,-3.4112,-3.4107,-3.4193,-3.4227,-3.4271,-3.4239,-3.4097,-3.4083,-3.4067,-3.4027,-3.4239,-3.4239,-3.4239,-3.4239,-3.3969,-3.3961,-3.4082,-3.4151,-3.4219,-3.4226,-3.4358,-3.4389,-3.4413,-3.4434,-3.4403,-3.4349,-3.4333,-3.4329,-3.4308,-3.427,-3.4539,-3.4539,-3.454,-3.4107,-3.4106,-3.422,-3.4244,-3.4303,-3.4353,-3.4477,-3.4556,-3.4572,-3.4552,-3.445,-3.4438,-3.4351,-3.4323,-3.4301,-3.4268,-3.4198,0,0]}]]